User: anonymous   Login
Location: Unspecified
(0.0000°N, 0.0000°E)
Time: 22:48:08
(UTC+00:00)
Language:

HO-68 - Orbit

View from above orbital plane
View from above orbital plane
View from above satellite
View from above satellite

Ground track
Ground track

The orbit data is extracted from the following two-line orbital elements,

1 36122U 09072B   17058.51248670 -.00000032  00000-0  27804-4 0  9997
2 36122 100.1134  89.6633 0008091 125.8777 234.3089 13.16338385346201
Epoch (UTC): 27 February 2017 12:17:58
Eccentricity: 0.0008091
inclination: 100.1134°
perigee height: 1192 km
apogee height: 1205 km
right ascension of ascending node: 89.6633°
argument of perigee: 125.8777°
revolutions per day: 13.16338385
mean anomaly at epoch: 234.3089°
orbit number at epoch: 34620

The dashed part of the orbit path shows where the satellite is in the earth's shadow,  

DLR